Location: �couen
(49.0206°N, 2.3831°E)
Time: 12:19:45
(UTC+00:00)

ARGOS - Pass Details

Date: 16 October 2021
Orbit: 819 x 835 km, 98.4° (Epoch: 07 December)

Event Time Altitude Azimuth Distance (km) Brightness Sun altitude
Rises 17:29:36 0° 144° (SE) 3,355 6.0 -5.9°
Reaches altitude 10° 17:32:01 10° 139° (SE) 2,428 5.3 -6.3°
Maximum altitude 17:37:08 46° 67° (ENE) 1,101 3.4 -7.1°
Drops below altitude 10° 17:42:18 10° 356° (N) 2,453 5.6 -7.9°
Sets 17:44:44 0° 350° (N) 3,393 6.4 -8.3°
